When you browse on this site, cookies collect data to enhance your experience and personalize the content and advertising you see.
Visit our Privacy Policy to learn more. By continuing to use the site, you agree to this use of cookies and data.
  • In United Kingdom
  • List of Countries
  • For 7 days
  • Water Temperature
  • Satellite Maps
  • Weather Map
  • Weather Widgets
  • user-avatar
    Login

    Hourly Weather Escuintla

    Today, 20 April, Saturday

    Time Temperature Precipitation Wind Pressure Humidity
    00:00 +27°C° 0 mm 1 mps 731 mmHg 68%
    01:00 +27°C° 0 mm 2 mps 731 mmHg 65%
    02:00 +27°C° 0 mm 2 mps 731 mmHg 62%
    03:00 +27°C° 0 mm 2 mps 731 mmHg 59%
    04:00 +26°C° 0 mm 2 mps 731 mmHg 58%
    05:00 +26°C° 0 mm 2 mps 731 mmHg 57%
    06:00 +26°C° 0 mm 2 mps 731 mmHg 55%
    07:00 +28°C° 0 mm 2 mps 731 mmHg 49%
    08:00 +31°C° 0 mm 2 mps 731 mmHg 43%
    09:00 +34°C° 0 mm 2 mps 732 mmHg 37%
    10:00 +36°C° 0 mm 2 mps 732 mmHg 33%
    11:00 +38°C° 0 mm 2 mps 731 mmHg 29%
    12:00 +40°C° 0 mm 2 mps 731 mmHg 25%
    13:00 +40°C° 0 mm 2 mps 730 mmHg 27%
    14:00 +39°C° 0 mm 2 mps 730 mmHg 29%
    15:00 +38°C° 0 mm 3 mps 729 mmHg 31%
    16:00 +36°C° 0 mm 3 mps 729 mmHg 38%
    17:00 +34°C° 0 mm 2 mps 729 mmHg 45%
    18:00 +31°C° 0 mm 2 mps 729 mmHg 52%
    19:00 +30°C° 0.1 mm 2 mps 730 mmHg 55%
    20:00 +29°C° 0.1 mm 1 mps 731 mmHg 58%
    21:00 +28°C° 0.1 mm 1 mps 731 mmHg 61%
    22:00 +28°C° 0 mm 1 mps 731 mmHg 58%
    23:00 +27°C° 0 mm 2 mps 732 mmHg 55%

    Tomorrow, 21 April, Sunday

    Time Temperature Precipitation Wind Pressure Humidity
    00:00 +27°C° 0 mm 2 mps 732 mmHg 52%
    01:00 +27°C° 0 mm 2 mps 731 mmHg 50%
    02:00 +26°C° 0 mm 2 mps 731 mmHg 48%
    03:00 +26°C° 0 mm 2 mps 730 mmHg 45%
    04:00 +25°C° 0 mm 2 mps 730 mmHg 45%
    05:00 +25°C° 0 mm 2 mps 730 mmHg 45%
    06:00 +25°C° 0 mm 2 mps 731 mmHg 44%
    07:00 +28°C° 0 mm 2 mps 731 mmHg 37%
    08:00 +31°C° 0 mm 1 mps 732 mmHg 29%
    09:00 +35°C° 0 mm 1 mps 732 mmHg 22%
    10:00 +36°C° 0 mm 1 mps 732 mmHg 21%
    11:00 +38°C° 0 mm 2 mps 732 mmHg 20%
    12:00 +39°C° 0 mm 2 mps 731 mmHg 19%
    13:00 +38°C° 0 mm 3 mps 731 mmHg 22%
    14:00 +38°C° 0 mm 3 mps 730 mmHg 24%
    15:00 +37°C° 0 mm 3 mps 729 mmHg 27%
    16:00 +35°C° 0 mm 3 mps 729 mmHg 35%
    17:00 +32°C° 0 mm 2 mps 729 mmHg 42%
    18:00 +31°C° 0 mm 2 mps 729 mmHg 50%
    19:00 +30°C° 0 mm 1 mps 730 mmHg 53%
    20:00 +29°C° 0 mm 1 mps 731 mmHg 56%
    21:00 +28°C° 0 mm 1 mps 731 mmHg 59%
    22:00 +28°C° 0 mm 1 mps 731 mmHg 57%
    23:00 +27°C° 0 mm 1 mps 731 mmHg 54%

    Day after tomorrow, 22 April, Monday

    Time Temperature Precipitation Wind Pressure Humidity
    00:00 +27°C° 0 mm 1 mps 731 mmHg 52%
    01:00 +27°C° 0 mm 1 mps 731 mmHg 51%
    02:00 +26°C° 0 mm 1 mps 730 mmHg 50%
    03:00 +26°C° 0 mm 1 mps 730 mmHg 50%
    04:00 +26°C° 0 mm 1 mps 730 mmHg 49%
    05:00 +26°C° 0 mm 1 mps 730 mmHg 48%
    06:00 +25°C° 0 mm 1 mps 730 mmHg 48%
    07:00 +29°C° 0 mm 1 mps 730 mmHg 41%
    08:00 +32°C° 0 mm 1 mps 731 mmHg 35%
    09:00 +35°C° 0 mm 1 mps 732 mmHg 28%
    10:00 +36°C° 0 mm 1 mps 731 mmHg 28%
    11:00 +37°C° 0 mm 2 mps 731 mmHg 28%
    12:00 +38°C° 0 mm 3 mps 730 mmHg 27%
    13:00 +38°C° 0 mm 3 mps 729 mmHg 30%
    14:00 +37°C° 0 mm 3 mps 729 mmHg 32%
    15:00 +37°C° 0 mm 3 mps 728 mmHg 35%
    16:00 +35°C° 0 mm 3 mps 728 mmHg 42%
    17:00 +34°C° 0 mm 2 mps 728 mmHg 50%
    18:00 +31°C° 0 mm 2 mps 728 mmHg 57%
    19:00 +30°C° 0 mm 1 mps 729 mmHg 61%
    20:00 +29°C° 0 mm 1 mps 729 mmHg 65%
    21:00 +26°C° 0 mm 0 mps 730 mmHg 69%
    22:00 +26°C° 0 mm 0 mps 730 mmHg 68%
    23:00 +28°C° 0 mm 1 mps 730 mmHg 67%

    23 April, Tuesday

    Time Temperature Precipitation Wind Pressure Humidity
    00:00 +27°C° 0 mm 1 mps 730 mmHg 66%
    01:00 +27°C° 0 mm 1 mps 729 mmHg 65%
    02:00 +27°C° 0 mm 1 mps 729 mmHg 63%
    03:00 +27°C° 0 mm 1 mps 728 mmHg 62%
    04:00 +27°C° 0 mm 1 mps 729 mmHg 61%
    05:00 +27°C° 0 mm 1 mps 729 mmHg 60%
    06:00 +26°C° 0 mm 1 mps 729 mmHg 59%
    07:00 +29°C° 0 mm 1 mps 729 mmHg 53%
    08:00 +32°C° 0 mm 1 mps 730 mmHg 47%
    09:00 +34°C° 0 mm 1 mps 730 mmHg 41%
    10:00 +36°C° 0 mm 2 mps 730 mmHg 40%
    11:00 +36°C° 0 mm 3 mps 729 mmHg 40%
    12:00 +37°C° 0 mm 3 mps 729 mmHg 39%
    13:00 +36°C° 0.1 mm 3 mps 728 mmHg 44%
    14:00 +35°C° 0.1 mm 3 mps 727 mmHg 49%
    15:00 +34°C° 0.1 mm 2 mps 727 mmHg 53%
    16:00 +32°C° 0.2 mm 2 mps 727 mmHg 59%
    17:00 +31°C° 0.2 mm 2 mps 727 mmHg 64%
    18:00 +30°C° 0.2 mm 1 mps 727 mmHg 70%
    19:00 +29°C° 0.1 mm 1 mps 728 mmHg 73%
    20:00 +26°C° 0.1 mm 0 mps 728 mmHg 77%
    21:00 +26°C° 0.1 mm 0 mps 729 mmHg 80%
    22:00 +26°C° 0.2 mm 0 mps 729 mmHg 80%
    23:00 +25°C° 0.2 mm 0 mps 729 mmHg 79%

    24 April, Wednesday

    Time Temperature Precipitation Wind Pressure Humidity
    00:00 +25°C° 0.2 mm 0 mps 729 mmHg 79%
    01:00 +27°C° 0 mm 1 mps 728 mmHg 78%
    02:00 +27°C° 0 mm 1 mps 728 mmHg 77%
    03:00 +27°C° 0 mm 1 mps 727 mmHg 76%
    04:00 +27°C° 0 mm 1 mps 728 mmHg 75%
    05:00 +27°C° 0 mm 1 mps 728 mmHg 74%
    06:00 +27°C° 0 mm 1 mps 728 mmHg 73%
    07:00 +29°C° 0 mm 1 mps 729 mmHg 66%
    08:00 +31°C° 0 mm 1 mps 729 mmHg 59%
    09:00 +34°C° 0 mm 2 mps 730 mmHg 52%
    10:00 +34°C° 0.2 mm 2 mps 729 mmHg 54%
    11:00 +34°C° 0.2 mm 2 mps 729 mmHg 55%
    12:00 +34°C° 0.2 mm 2 mps 728 mmHg 57%
    13:00 +32°C° 0.4 mm 2 mps 728 mmHg 60%
    14:00 +31°C° 0.4 mm 2 mps 727 mmHg 63%
    15:00 +31°C° 0.4 mm 2 mps 726 mmHg 66%
    16:00 +30°C° 0.6 mm 2 mps 727 mmHg 69%
    17:00 +29°C° 0.6 mm 1 mps 727 mmHg 72%
    18:00 +29°C° 0.6 mm 1 mps 727 mmHg 74%
    19:00 +28°C° 0.2 mm 1 mps 728 mmHg 77%
    20:00 +28°C° 0.2 mm 1 mps 728 mmHg 79%
    21:00 +27°C° 0.2 mm 1 mps 728 mmHg 82%
    22:00 +27°C° 0 mm 1 mps 728 mmHg 81%
    23:00 +27°C° 0 mm 1 mps 728 mmHg 81%

    25 April, Thursday

    Time Temperature Precipitation Wind Pressure Humidity
    00:00 +27°C° 0 mm 1 mps 728 mmHg 80%
    01:00 +26°C° 0 mm 1 mps 728 mmHg 79%
    02:00 +26°C° 0 mm 1 mps 727 mmHg 79%
    03:00 +26°C° 0 mm 1 mps 727 mmHg 78%
    04:00 +26°C° 0 mm 1 mps 728 mmHg 77%
    05:00 +26°C° 0 mm 1 mps 728 mmHg 77%
    06:00 +26°C° 0 mm 1 mps 729 mmHg 76%
    07:00 +29°C° 0 mm 1 mps 729 mmHg 67%
    08:00 +31°C° 0 mm 1 mps 729 mmHg 57%
    09:00 +34°C° 0 mm 1 mps 730 mmHg 48%
    10:00 +35°C° 0 mm 2 mps 730 mmHg 48%
    11:00 +36°C° 0 mm 2 mps 729 mmHg 47%
    12:00 +36°C° 0 mm 3 mps 729 mmHg 47%
    13:00 +35°C° 0.1 mm 3 mps 728 mmHg 51%
    14:00 +34°C° 0.1 mm 3 mps 728 mmHg 55%
    15:00 +34°C° 0.1 mm 3 mps 727 mmHg 59%
    16:00 +31°C° 0.2 mm 2 mps 727 mmHg 65%
    17:00 +30°C° 0.2 mm 2 mps 728 mmHg 70%
    18:00 +29°C° 0.2 mm 1 mps 728 mmHg 75%
    19:00 +29°C° 0 mm 1 mps 728 mmHg 77%
    20:00 +28°C° 0 mm 1 mps 729 mmHg 79%
    21:00 +26°C° 0 mm 0 mps 729 mmHg 81%
    22:00 +26°C° 0 mm 0 mps 729 mmHg 81%
    23:00 +27°C° 0 mm 1 mps 729 mmHg 81%
    Show more